Location: Ferchesar
(52.6477°N, 12.4298°E)
Time: 02:06:13
(UTC+01:00)

Transit 2A - Pass Details

Date: 10 December 2021
Orbit: 591 x 967 km, 66.7° (Epoch: 17 January)

Event Time Altitude Azimuth Distance (km) Brightness Sun altitude
Exits shadow 03:18:55 18° 30° (NNE) 2,164 8.6 -42.6°
Drops below altitude 10° 03:21:25 10° 50° (NE) 2,715 9.4 -42.2°
Sets 03:24:37 0° 65° (ENE) 3,649 10.3 -41.7°
